This demonstration page uses our WeatherBlox Daily Observations layout. Learn more.

41.55636, -103.73856

Hourly Observations for August 13, 2018

Temp ( °F °C ) Dew Point ( °F °C ) Humidity (%) Winds ( mph kmh ) Pressure ( in mb ) Visibility ( mi km ) Precip ( " mm )
12:58 am 00:58 Clear 59 15.2 51 10.7 75 75 S 12 19 29.94 1014 10 16.09344 0 0
1:58 am 01:58 Clear 58 14.5 52 11 80 80 S 10 17 29.94 1014 10 16.09344 0 0
2:58 am 02:58 Clear 58 14.3 52 10.9 80 80 S 9 15 29.91 1013 10 16.09344 0 0
3:58 am 03:58 Clear 56 13.5 51 10.6 83 83 S 8 13 29.91 1013 10 16.09344 0 0
4:58 am 04:58 Clear 55 12.6 51 10.4 87 87 S 6 9 29.91 1013 10 16.09344 0 0
5:58 am 05:58 Clear 53 11.5 50 10 91 91 SSE 9 15 29.91 1013 8 12.874752 0 0
6:58 am 06:58 Sunny 55 13 52 11.3 90 90 W 6 9 29.94 1014 10 16.09344 0 0
7:58 am 07:58 Sunny 60 15.3 55 12.6 84 84 SSE 3 6 29.94 1014 10 16.09344 0 0
8:58 am 08:58 Sunny 65 18.3 56 13.5 74 74 S 10 17 29.94 1014 10 16.09344 0 0
9:58 am 09:58 Sunny 70 20.9 56 13.4 62 62 S 8 13 29.94 1014 10 16.09344 0 0
11:58 am 11:58 Sunny 77 25 51 10.6 40 40 SSE 8 13 29.94 1014 10 16.09344 0 0
12:58 pm 12:58 Sunny 79 26 55 12.8 44 44 SSE 12 19 29.91 1013 10 16.09344 0 0
1:58 pm 13:58 Sunny 81 27.1 51 10.4 35 35 S 12 19 29.91 1013 10 16.09344 0 0
2:58 pm 14:58 Sunny 82 28 54 12.2 38 38 SE 10 17 29.91 1013 10 16.09344 0 0
3:58 pm 15:58 Sunny 82 28 49 9.4 31 31 SE 8 13 29.88 1012 10 16.09344 0 0
4:58 pm 16:58 Sunny 82 28 46 7.7 28 28 E 6 9 29.88 1012 10 16.09344 0 0
5:58 pm 17:58 Sunny 80 26.9 49 9.2 33 33 E 7 11 29.91 1013 10 16.09344 0 0
6:58 pm 18:58 Sunny 76 24.7 53 11.5 44 44 SE 6 9 29.91 1013 10 16.09344 0 0
7:58 pm 19:58 Clear 71 21.5 54 12 55 55 ESE 12 19 29.94 1014 10 16.09344 0 0
8:58 pm 20:58 Clear 68 20.1 55 12.5 62 62 SE 9 15 29.94 1014 10 16.09344 0 0
9:58 pm 21:58 Clear 66 18.7 57 13.7 73 73 SSE 9 15 29.97 1015 10 16.09344 0 0
10:58 pm 22:58 Clear 63 17.3 58 14.4 83 83 SE 8 13 29.97 1015 10 16.09344 0 0
11:58 pm 23:58 Clear 62 16.8 59 15.1 90 90 SE 9 15 29.97 1015 10 16.09344 0 0

Powered by AerisWeather